This is the latest recevied weather packets stored in our database for station/object HA8BKG-10. If no packets are shown the sender has not sent any weather packets the latest 10 day(s).
| Time | Temp. | Humidity | Pressure | Rain* | Wind** | Luminosity | Snow |
|---|---|---|---|---|---|---|---|
| 1777677406 | 16.67° C | 35% | 1024.3 hPa | - | - | - | - |
| 1777676506 | 16.67° C | 35% | 1024.4 hPa | - | - | - | - |
| 1777675606 | 16.67° C | 35% | 1024.4 hPa | - | - | - | - |
| 1777674706 | 17.22° C | 34% | 1024.5 hPa | - | - | - | - |
| 1777673805 | 17.22° C | 34% | 1024.6 hPa | - | - | - | - |
| 1777672905 | 17.22° C | 35% | 1024.7 hPa | - | - | - | - |
| 1777672005 | 17.22° C | 34% | 1024.7 hPa | - | - | - | - |
| 1777671105 | 17.22° C | 35% | 1024.6 hPa | - | - | - | - |
| 1777670204 | 17.22° C | 34% | 1024.5 hPa | - | - | - | - |
| 1777669304 | 17.22° C | 34% | 1024.4 hPa | - | - | - | - |
| 1777668403 | 17.22° C | 34% | 1024.5 hPa | - | - | - | - |
| 1777667537 | 16.67° C | 34% | 1024.5 hPa | - | - | - | - |
| 1777667503 | 16.67° C | 34% | 1024.5 hPa | - | - | - | - |
| 1777666603 | 17.78° C | 34% | 1024.3 hPa | - | - | - | - |
| 1777665703 | 17.78° C | 34% | 1024.3 hPa | - | - | - | - |
| 1777664835 | 17.22° C | 33% | 1024.4 hPa | - | - | - | - |
| 1777664803 | 17.22° C | 33% | 1024.4 hPa | - | - | - | - |
| 1777663903 | 17.78° C | 33% | 1024.4 hPa | - | - | - | - |
| 1777663003 | 17.78° C | 34% | 1024.4 hPa | - | - | - | - |
| 1777662102 | 17.78° C | 33% | 1024.4 hPa | - | - | - | - |
| 1777661202 | 17.78° C | 33% | 1024.2 hPa | - | - | - | - |
| 1777660302 | 17.78° C | 33% | 1024.2 hPa | - | - | - | - |
| 1777659402 | 17.78° C | 33% | 1024.2 hPa | - | - | - | - |
| 1777658502 | 18.33° C | 33% | 1023.9 hPa | - | - | - | - |
| 1777657601 | 18.33° C | 32% | 1023.9 hPa | - | - | - | - |
* Rain since midnight (hover to see other rain measurements)
** Current wind speed in m/s (hover to see current wind gust speed)